Pampa, TX

5:11 AM CST on February 24, 2018 (GMT -0600)
Perry Lefors

Weather History for KPPA - October, 2011

Change the Weather History Date:

Friday, October 14, 2011

  Actual Average Record
Temperature  
Mean Temperature 60 °F -  
Max Temperature 73 °F 76 °F 93 °F (1968)
Min Temperature 46 °F 47 °F 28 °F (1969)
Degree Days  
Heating Degree Days 6    
Growing Degree Days 10 (Base 50)    
Moisture  
Dew Point 41 °F    
Average Humidity 51    
Maximum Humidity 81    
Minimum Humidity 31    
Precipitation  
Precipitation 0.00 in - - ()
Sea Level Pressure  
Sea Level Pressure 29.95 in    
Wind  
Wind Speed 12 mph (SE)    
Max Wind Speed 17 mph    
Max Gust Speed 22 mph    
Visibility 10 miles    
Events      
Averages and records for this station are not official NWS values.
T = Trace of Precipitation, MM = Missing Value Source: NWS Daily Summary

Daily Weather History Graph

Daily Weather History Graph

Search for Another Location

Airport or City:

Trip Planner

Search our weather history database for the weather conditions in past years. The results will help you decide how hot, cold, wet, or windy it might be!

Date:

Astronomy

Oct. 14, 2011 Rise Set
Actual Time 7:49 AM CDT 7:10 PM CDT
Civil Twilight 7:23 AM CDT 7:35 PM CDT
Nautical Twilight 6:54 AM CDT 8:05 PM CDT
Astronomical Twilight 6:24 AM CDT 8:34 PM CDT
Moon 8:32 PM CDT (10/14) 10:12 AM CDT (10/14)
Length of Visible Light 12h 12m
Length of Day
11h 20m
Waning Gibbous, 94% of the Moon is Illuminated
Oct 14
Waning Gibbous
Oct 19
Last Quarter
Oct 26
New
Nov 2
First Quarter
Nov 10
Full

Hourly Weather History & Observations

Time (CDT) Temp. Windchill Dew Point Humidity Pressure Visibility Wind Dir Wind Speed Gust Speed Precip Events Conditions
12:15 AM 59.0 °F - 39.2 °F 48% 29.95 in 10.0 mi South 16.1 mph - N/A   Clear
12:35 AM 59.0 °F - 39.2 °F 48% 29.94 in 10.0 mi South 17.3 mph - N/A   Clear
12:55 AM 57.2 °F - 41.0 °F 55% 29.93 in 10.0 mi South 16.1 mph - N/A   Clear
1:15 AM 55.4 °F - 41.0 °F 58% 29.92 in 10.0 mi South 16.1 mph 21.9 mph N/A   Clear
1:35 AM 55.4 °F - 41.0 °F 58% 29.92 in 10.0 mi South 15.0 mph - N/A   Clear
1:55 AM 55.4 °F - 41.0 °F 58% 29.92 in 10.0 mi South 16.1 mph - N/A   Clear
2:15 AM 55.4 °F - 41.0 °F 58% 29.92 in 10.0 mi South 15.0 mph - N/A   Clear
2:35 AM 55.4 °F - 41.0 °F 58% 29.92 in 10.0 mi South 13.8 mph - N/A   Clear
2:55 AM 53.6 °F - 41.0 °F 62% 29.92 in 10.0 mi South 13.8 mph - N/A   Clear
3:15 AM 53.6 °F - 41.0 °F 62% 29.92 in 10.0 mi South 12.7 mph - N/A   Clear
3:35 AM 53.6 °F - 41.0 °F 62% 29.92 in 10.0 mi South 12.7 mph - N/A   Clear
3:55 AM 53.6 °F - 41.0 °F 62% 29.91 in 10.0 mi South 12.7 mph - N/A   Clear
4:15 AM 51.8 °F - 41.0 °F 67% 29.91 in 10.0 mi South 12.7 mph - N/A   Clear
4:35 AM 53.6 °F - 41.0 °F 62% 29.91 in 10.0 mi South 13.8 mph - N/A   Clear
4:55 AM 53.6 °F - 41.0 °F 62% 29.91 in 10.0 mi South 15.0 mph - N/A   Clear
5:15 AM 53.6 °F - 41.0 °F 62% 29.91 in 10.0 mi South 12.7 mph - N/A   Clear
5:35 AM 51.8 °F - 41.0 °F 67% 29.92 in 10.0 mi South 9.2 mph - N/A   Clear
5:55 AM 51.8 °F - 41.0 °F 67% 29.93 in 10.0 mi SSW 5.8 mph - N/A   Clear
6:15 AM 50.0 °F - 41.0 °F 71% 29.93 in 10.0 mi South 8.1 mph - N/A   Clear
6:35 AM 50.0 °F - 41.0 °F 71% 29.92 in 10.0 mi South 8.1 mph - N/A   Clear
6:55 AM 50.0 °F - 41.0 °F 71% 29.92 in 10.0 mi SSE 10.4 mph - N/A   Clear
7:15 AM 50.0 °F - 41.0 °F 71% 29.92 in 10.0 mi South 9.2 mph - N/A   Clear
7:35 AM 50.0 °F - 41.0 °F 71% 29.92 in 10.0 mi South 8.1 mph - N/A   Clear
7:55 AM 46.4 °F 42.4 °F 41.0 °F 81% 29.93 in 10.0 mi South 8.1 mph - N/A   Clear
8:15 AM 46.4 °F 41.9 °F 41.0 °F 81% 29.93 in 10.0 mi South 9.2 mph - N/A   Clear
8:35 AM 50.0 °F - 41.0 °F 71% 29.93 in 10.0 mi South 5.8 mph - N/A   Clear
8:55 AM 53.6 °F - 42.8 °F 67% 29.95 in 10.0 mi South 3.5 mph - N/A   Clear
9:15 AM 55.4 °F - 42.8 °F 63% 29.96 in 10.0 mi South 8.1 mph - N/A   Clear
9:35 AM 59.0 °F - 42.8 °F 55% 29.96 in 10.0 mi SSW 6.9 mph - N/A   Clear
9:55 AM 60.8 °F - 41.0 °F 48% 29.96 in 10.0 mi SW 6.9 mph - N/A   Clear
10:15 AM 60.8 °F - 41.0 °F 48% 29.97 in 10.0 mi WSW 6.9 mph - N/A   Clear
10:35 AM 62.6 °F - 39.2 °F 42% 29.98 in 10.0 mi West 5.8 mph - N/A   Clear
10:55 AM 62.6 °F - 39.2 °F 42% 29.98 in 10.0 mi WNW 5.8 mph - N/A   Clear
11:15 AM 62.6 °F - 41.0 °F 45% 29.98 in 10.0 mi NNW 5.8 mph - N/A   Clear
11:35 AM 64.4 °F - 41.0 °F 42% 29.99 in 10.0 mi North 9.2 mph - N/A   Clear
11:55 AM 64.4 °F - 41.0 °F 42% 29.99 in 10.0 mi North 10.4 mph - N/A   Clear
12:15 PM 64.4 °F - 41.0 °F 42% 29.99 in 10.0 mi North 12.7 mph - N/A   Clear
12:35 PM 66.2 °F - 41.0 °F 40% 30.00 in 10.0 mi NE 9.2 mph - N/A   Clear
12:55 PM 68.0 °F - 41.0 °F 37% 30.00 in 10.0 mi NNE 10.4 mph - N/A   Clear
1:15 PM 68.0 °F - 41.0 °F 37% 29.99 in 10.0 mi NE 11.5 mph 16.1 mph N/A   Clear
1:35 PM 69.8 °F - 41.0 °F 35% 29.99 in 10.0 mi NNE 10.4 mph - N/A   Clear
1:55 PM 69.8 °F - 41.0 °F 35% 29.98 in 10.0 mi NE 11.5 mph - N/A   Clear
2:15 PM 71.6 °F - 39.2 °F 31% 29.97 in 10.0 mi NE 9.2 mph - N/A   Clear
2:35 PM 71.6 °F - 41.0 °F 33% 29.96 in 10.0 mi ENE 9.2 mph - N/A   Clear
2:55 PM 71.6 °F - 41.0 °F 33% 29.96 in 10.0 mi East 10.4 mph - N/A   Clear
3:15 PM 73.4 °F - 41.0 °F 31% 29.96 in 10.0 mi NE 5.8 mph 16.1 mph N/A   Clear
3:35 PM 73.4 °F - 41.0 °F 31% 29.96 in 10.0 mi ENE 9.2 mph - N/A   Clear
3:55 PM 73.4 °F - 41.0 °F 31% 29.96 in 10.0 mi NE 8.1 mph 17.3 mph N/A   Clear
4:15 PM 73.4 °F - 41.0 °F 31% 29.96 in 10.0 mi NE 10.4 mph - N/A   Clear
4:35 PM 73.4 °F - 41.0 °F 31% 29.96 in 10.0 mi NE 13.8 mph - N/A   Clear
4:55 PM 73.4 °F - 42.8 °F 33% 29.97 in 10.0 mi NE 12.7 mph 17.3 mph N/A   Clear
5:35 PM 73.4 °F - 42.8 °F 33% 29.98 in 10.0 mi NE 13.8 mph 19.6 mph N/A   Clear
5:55 PM 71.6 °F - 42.8 °F 35% 29.98 in 10.0 mi NE 17.3 mph - N/A   Clear
6:15 PM 71.6 °F - 42.8 °F 35% 29.99 in 10.0 mi NE 12.7 mph - N/A   Clear
6:35 PM 69.8 °F - 42.8 °F 38% 30.00 in 10.0 mi NE 15.0 mph 18.4 mph N/A   Clear
6:55 PM 68.0 °F - 42.8 °F 40% 30.00 in 10.0 mi NE 13.8 mph - N/A   Clear
7:15 PM 64.4 °F - 42.8 °F 45% 30.01 in 10.0 mi NE 10.4 mph - N/A   Clear
7:35 PM 62.6 °F - 44.6 °F 52% 30.02 in 10.0 mi NE 10.4 mph - N/A   Clear
7:55 PM 60.8 °F - 44.6 °F 55% 30.03 in 10.0 mi NNE 10.4 mph - N/A   Clear
8:15 PM 60.8 °F - 44.6 °F 55% 30.05 in 10.0 mi NE 12.7 mph - N/A   Clear
8:35 PM 60.8 °F - 44.6 °F 55% 30.05 in 10.0 mi NE 12.7 mph - N/A   Clear
8:55 PM 59.0 °F - 44.6 °F 59% 30.06 in 10.0 mi NE 11.5 mph - N/A   Clear
9:15 PM 59.0 °F - 42.8 °F 55% 30.06 in 10.0 mi NE 11.5 mph - N/A   Clear
9:35 PM 57.2 °F - 42.8 °F 59% 30.07 in 10.0 mi NE 10.4 mph - N/A   Clear
9:55 PM 55.4 °F - 42.8 °F 63% 30.06 in 10.0 mi ENE 11.5 mph - N/A   Clear
10:15 PM 55.4 °F - 42.8 °F 63% 30.07 in 10.0 mi ENE 11.5 mph - N/A   Clear
10:35 PM 55.4 °F - 42.8 °F 63% 30.08 in 10.0 mi ENE 10.4 mph - N/A   Clear
10:55 PM 53.6 °F - 42.8 °F 67% 30.08 in 10.0 mi ENE 10.4 mph - N/A   Clear
11:15 PM 53.6 °F - 44.6 °F 72% 30.08 in 10.0 mi East 11.5 mph - N/A   Clear
11:35 PM 53.6 °F - 42.8 °F 67% 30.08 in 10.0 mi East 12.7 mph - N/A   Clear
11:55 PM 53.6 °F - 42.8 °F 67% 30.08 in 10.0 mi East 11.5 mph - N/A   Clear